Location: Unspecified
(48.7670°N, 0.0000°E)
Time: 03:10:07
(UTC+00:00)

A-11 Canister half - Pass Details

Date: 02 July 2019
Orbit: 1526 x 1683 km, 47.3° (Epoch: 15 July)

Event Time Altitude Azimuth Distance (km) Brightness Sun altitude
Exits shadow 22:59:19 11° 125° (SE) 3,741 10.6 -16.8°
Maximum altitude 22:59:46 11° 122° (ESE) 3,735 10.6 -16.8°
Drops below altitude 10° 23:01:48 10° 110° (ESE) 3,789 10.7 -16.9°
Sets 23:08:23 0° 77° (ENE) 4,739 11.6 -17.2°
